Tracking 19709 objects as of 20-Jun-2019
HD Live streaming from Space Station
objects crossing your sky now

YZ-1 R/B

Track YZ-1 R/B now!


NORAD ID: 43248
Int'l Code: 2018-029D
Perigee: 22,142.1 km
Apogee: 22,694.8 km
Inclination: 55.5 °
Period: 810.2 minutes
Semi major axis: 28789 km
RCS: Unknown
Launch date: March 29, 2018
Source: People's Republic of China (PRC)
Launch site: Xichang Space Center, China (XSC)

Note: This is a ROCKET BODY
aabbcc
Your satellite tracking list
Your tracking list is empty




NASA's NSSDC Master Catalog

Two Line Element Set (TLE):
1 43248U 18029D   19168.39320557 -.00000090  00000-0  00000+0 0  9999
2 43248  55.4747  29.5987 0095996 353.1015   6.8256  1.77726900  7903
Source of the keplerian elements: AFSPC